Regional Weather Roundup
Issued by NWS

Home | Current Version | Previous Version | Text Only | Print | Product List | Glossary Off
Versions: 1 2 3 4 5 6 7 8 9 10 11 12 13 14 15 16 17 18 19 20 21 22 23 24 25 26 27 28 29 30 31 32 33 34 35 36 37 38 39 40 41 42 43 44 45 46 47 48 49 50

000
ASUS43 KMKX 281900
RWRWI

WISCONSIN REGIONAL WEATHER ROUNDUP
NATIONAL WEATHER SERVICE MILWAUKEE/SULLIVAN WI
200 PM CDT FRI APR 28 2017

NOTE: "FAIR" INDICATES FEW OR NO CLOUDS BELOW 12,000 FEET WITH NO
SIGNIFICANT WEATHER AND/OR OBSTRUCTIONS TO VISIBILITY.

WIZ001-002-006>008-014>016-023>028-282000-
NORTHWEST WISCONSIN

CITY           SKY/WX    TMP DP  RH WIND       PRES   REMARKS
SUPERIOR ARPT  CLOUDY    44  28  52 W10G20    29.92S
ASHLAND        PTSUNNY   43  29  57 W15G23    29.92R
HAYWARD        MOSUNNY   43  25  49 W9        29.92S
SIREN          CLOUDY    43  26  51 CALM      29.94R
CUMBERLAND     CLOUDY    43  28  56 NW10      29.92F
RICE LAKE      CLOUDY    44  31  58 W8        29.95R
CHETEK         NOT AVBL
LADYSMITH      CLOUDY    45  29  55 W5        29.93R
EAU CLAIRE     NOT AVBL
MENOMONIE      CLOUDY    46  29  50 W5        29.93S
NEW RICHMOND   CLOUDY    46  26  47 SW3       29.95R
OSCEOLA        CLOUDY    45  31  56 NW7       29.97F
$$

WIZ003>005-009-010-017-018-282000-
NORTH CENTRAL WISCONSIN

CITY           SKY/WX    TMP DP  RH WIND       PRES   REMARKS
MANITOWISH WTR CLOUDY    35  27  73 W13       29.89R WCI  26
ARBOR VITAE    CLOUDY    37  26  64 W12       29.88S WCI  29
WOODRUFF       CLOUDY    37  26  64 W12       29.88S WCI  29
RHINELANDER    CLOUDY    40  26  57 SW8       29.89F WCI  34
EAGLE RIVER    CLOUDY    36  23  60 W8G16     29.88S WCI  29
LAND O LAKES   PTSUNNY   38  24  58 W9        29.89R WCI  31
PHILLIPS       CLOUDY    40  29  65 NW6       29.89S
TOMAHAWK       CLOUDY    39  27  61 W9        29.90F WCI  33
MEDFORD        CLOUDY    40  29  63 W8        29.89S
MERRILL        CLOUDY    42  29  60 W5        29.90S
$$

WIZ029-030-035-036-043>047-282000-
CENTRAL WISCONSIN

CITY           SKY/WX    TMP DP  RH WIND       PRES   REMARKS
WAUSAU         CLOUDY    43  29  57 W5        29.90R
MOSINEE        PTSUNNY   45  30  57 SW6       29.92R
MARSHFIELD     CLOUDY    44  29  55 W3        29.91R
STEVENS POINT  CLOUDY    42  28  56 SW7       29.91S
WAUPACA        MOSUNNY   50  31  47 W7        29.93R
WAUTOMA        MOSUNNY   50  32  50 S7        29.94R
WISC RAPIDS    CLOUDY    47  30  51 CALM      29.94R
CAMP DOUGLAS   NOT AVBL
$$

WIZ011>013-019>022-031-037>040-048>050-282000-
NORTHEAST WISCONSIN

CITY           SKY/WX    TMP DP  RH WIND       PRES   REMARKS
ANTIGO         CLOUDY    40  30  66 W12       29.89F WCI  33
SHAWANO        MOSUNNY   50  30  47 W6G16     29.91R
OCONTO         MOSUNNY   47  29  49 CALM      29.91F
STURGEON BAY   PTSUNNY   46  30  53 SW13G18   29.94R
GREEN BAY      MOSUNNY   49  37  63 SW9       29.93R
MANITOWOC      NOT AVBL
APPLETON       PTSUNNY   48  30  49 SW9       29.91R
CLINTONVILLE   CLOUDY    48  28  46 W6        29.91S
OSHKOSH        MOSUNNY   48  34  58 SW7       29.94R
$$

WIZ032>034-041-042-053>061-282000-
SOUTHWEST WISCONSIN

CITY           SKY/WX    TMP DP  RH WIND       PRES   REMARKS
LA CROSSE      CLOUDY    48  31  51 W3        29.94R
SPARTA         CLOUDY    47  32  56 SW5       29.95R
VIROQUA        CLOUDY    46  32  58 CALM      29.94R
BOSCOBEL       PTSUNNY   50  30  46 CALM      29.93F
PRAIRIE DU CHI CLOUDY    47  30  50 CALM      29.93F
PLATTEVILLE    CLOUDY    45  38  76 E6        29.92F
$$

WIZ056-057-062-063-064-067-068-282000-
SOUTH CENTRAL WISCONSIN

CITY           SKY/WX    TMP DP  RH WIND       PRES   REMARKS
REEDSBURG      CLOUDY    47  32  56 SW5       29.94R
BARABOO/DELLS  CLOUDY    48  32  54 SW6       29.93R
LONE ROCK      NOT AVBL
MINERAL POINT  LGT RAIN  45  37  76 CALM      29.92F
MADISON        LGT RAIN  47  30  51 CALM      29.92F
MIDDLETON      CLOUDY    48  35  62 NE5       29.93F
WATERTOWN      LGT RAIN  47  36  65 CALM      29.93F
MONROE         LGT RAIN  45  36  70 E3        29.92F
JANESVILLE     LGT RAIN  48  37  66 CALM      29.92F
$$

WIZ051-052-058>065-066-070>072-282000-
SOUTHEAST WISCONSIN

CITY           SKY/WX    TMP DP  RH WIND       PRES   REMARKS
MILWAUKEE      CLOUDY    52  41  66 SE10      29.94F
WAUKESHA       PTSUNNY   50  34  53 S3        29.94F
MILWAUKEE/TIMM CLOUDY    52  32  46 CALM      29.95S
RACINE         CLOUDY    50  36  58 SE9       29.95F
KENOSHA        CLOUDY    51  40  65 E8        29.93F
FOND DU LAC    MOSUNNY   49  34  56 SW8       29.94S
SHEBOYGAN      CLOUDY    47  41  80 SE13      29.95R
WEST BEND      CLOUDY    52  37  58 S6        29.94S
JUNEAU         CLOUDY    46  35  63 S7        29.95S
$$

LSZ147-162-282000-
LAKE SUPERIOR

STATION/POSITION TIME  TEMP    WIND        PRES    WAVE
                       AIR SEA DIR/SP/G            HT/PER
                 (UTC) (F)     (DEG/KT/KT) (MB)    (FT/S)
DEVILS ISLAND    1800   36     240/ 21/ 24 1012.6R
PORT WING        1740   38     240/ 12/ 19 1013.2R
SAXON HARBOR     1840   40     220/  8/ 17 1012.9S
$$

LMZ867-665-643>646-282000-
LAKE MICHIGAN

STATION/POSITION TIME  TEMP    WIND        PRES    WAVE
                       AIR SEA DIR/SP/G            HT/PER
                 (UTC) (F)     (DEG/KT/KT) (MB)    (FT/S)
CHAMBERS ISLAND  1840   43     200/  6/ 10 1012.5F
N MID LAKE BUOY  1750   37 37  240/ 14/ 16 1014.6R   3/ 5
NORTHPORT PIER   1840   42     240/  6/ 15 1013.2S
KEWAUNEE LAKESHO 1830   45     230/  9/ 15 1013.3R
SHEBOYGAN LAKESH 1800   40     160/ 16/ 17 1014.3R
PORT WASHINGTON  1840   42     170/  7/ 11 1015.2F
MILWAUKEE LAKESH 1830   43     120/  8/  9   N/A
S MID LAKE BUOY  1750   43 42  130/  2/  4 1015.5R   1
KENOSHA   LAKESH 1800   45     140/  4/  6 1014.9
$$

TC  - TEMPERATURE IN CELSIUS
VSB - VISIBILITY IN STATUTE MILES
WCI - WIND CHILL INDEX
HX  - HEAT INDEX





USA.gov is the U.S. government's official web portal to all federal, state and local government web resources and services.